Theta_e
352 349 348 349 350 349 349 349 349 347 348 348 348 348 349 349 348 349 350 348 349 350 349 350 349 347 349 348 344 342 342 343 342 341 342 340 336 334 335 335 335 336 338 340 341 342 341 341 340 339 338 338 338 338 338 338 339 339 338 337 337 337 335 335 334 333 334 335 335 335 335 334 333 333 333 333 333 334 334 333 332 333 333 334 334
352 351 350 351 349 349 349 350 349 347 348 347 346 347 349 350 349 350 351 349 350 350 350 351 349 346 345 345 343 343 342 341 341 341 342 343 338 334 335 337 336 335 335 336 339 342 342 341 341 341 340 339 339 339 338 338 338 338 338 338 337 337 336 336 335 334 334 334 335 335 335 334 334 335 335 335 336 337 336 335 334 334 334 334 334
352 351 351 350 350 348 347 349 350 348 348 347 347 348 350 350 348 348 349 349 349 349 349 350 349 345 344 343 342 341 339 338 341 342 342 344 341 337 336 338 338 336 335 334 335 338 340 342 342 342 341 340 340 340 340 339 337 337 338 338 338 338 337 337 336 336 336 335 336 336 336 336 336 336 336 336 336 337 337 336 336 336 335 334 334
353 352 351 350 351 350 349 350 350 350 348 348 349 349 349 349 347 347 349 349 350 349 348 348 346 344 342 340 339 339 336 338 342 343 342 344 344 341 338 338 338 338 337 336 334 334 336 339 341 342 342 341 341 340 341 340 338 337 338 338 339 339 338 337 337 336 336 336 335 336 336 336 336 336 336 336 336 336 336 336 337 337 337 336 335
350 352 350 350 353 351 352 352 350 351 351 348 348 350 350 349 350 350 349 350 351 349 348 347 345 343 342 339 338 336 336 337 341 342 342 343 345 343 341 341 341 340 338 336 334 333 332 334 338 340 341 341 341 341 341 341 340 339 339 338 339 339 338 338 337 336 337 337 336 336 335 335 335 335 335 335 335 335 336 335 334 335 335 335 335
344 348 346 348 352 351 352 353 352 352 350 347 348 351 351 350 351 350 349 351 351 349 347 346 343 342 341 339 337 337 338 340 341 342 343 344 344 344 343 343 344 343 339 336 334 333 331 331 335 338 340 340 340 341 341 341 341 340 340 339 339 339 339 339 338 338 338 337 336 336 336 336 335 335 335 335 335 334 334 333 332 331 332 332 332
340 344 342 344 351 352 351 352 352 351 350 348 348 352 352 350 350 350 350 350 349 346 345 344 342 341 339 338 336 337 341 341 341 343 343 344 345 345 345 344 344 343 341 341 337 332 330 330 333 335 338 339 340 340 341 341 341 341 341 340 339 339 339 339 339 338 338 337 337 337 336 336 336 335 335 335 335 334 334 332 332 331 331 331 331
341 342 341 341 348 353 352 351 351 350 349 348 348 351 351 349 349 349 348 347 348 346 343 342 341 339 338 337 337 338 340 339 341 344 345 346 347 346 346 344 344 342 341 342 338 331 330 329 331 334 335 336 339 340 340 341 341 342 341 341 341 341 340 339 339 338 338 338 338 338 337 337 336 335 335 336 336 335 335 334 333 333 334 334 334
339 341 342 340 345 352 353 352 351 349 348 347 347 350 351 349 347 348 346 346 348 346 344 342 339 339 339 339 338 339 340 340 342 345 346 347 347 347 347 345 344 343 343 343 340 336 332 330 329 332 334 335 338 339 339 341 342 341 341 342 341 341 341 340 340 339 339 338 338 338 338 338 337 337 336 336 336 336 336 336 335 336 336 336 336
337 340 341 340 344 351 352 352 350 348 348 347 347 351 352 350 348 347 345 345 347 345 343 342 337 337 340 340 337 340 342 341 342 345 346 346 347 347 347 345 344 343 344 344 343 341 338 334 330 331 333 335 336 337 337 339 340 341 341 341 340 341 340 340 339 339 339 338 339 339 338 338 338 337 336 336 337 337 337 336 336 337 336 336 336
336 339 341 341 342 348 351 351 348 347 347 347 348 349 350 349 347 347 345 345 346 345 342 339 336 336 339 340 337 340 343 341 341 343 344 345 346 346 347 346 345 343 344 345 344 343 341 339 336 335 335 335 335 335 335 335 335 337 337 338 339 339 340 339 339 339 339 338 339 339 338 339 338 337 336 336 337 337 337 337 337 337 337 337 337
336 339 341 341 341 344 347 349 349 347 347 348 350 349 348 347 346 347 348 345 344 345 341 338 339 337 336 338 336 338 340 339 341 342 342 345 344 344 345 345 344 343 344 344 345 344 343 342 342 342 339 336 335 334 334 334 334 334 334 334 336 338 338 339 339 339 339 339 339 339 339 339 339 338 337 337 337 338 338 338 338 338 338 337 338
339 340 341 340 340 341 343 348 350 348 348 348 350 349 347 346 345 346 348 345 343 344 339 336 339 337 335 338 336 336 339 339 341 343 343 344 343 342 342 343 343 342 342 342 343 345 344 344 343 342 341 340 338 336 335 336 335 335 335 334 335 336 337 337 337 338 338 339 339 339 340 340 340 340 339 339 339 338 338 339 339 339 338 338 338
342 342 341 340 340 340 342 348 349 348 348 347 349 348 347 347 347 348 348 345 345 345 339 337 341 339 338 339 337 337 339 339 340 342 343 343 343 342 341 341 341 341 340 339 341 345 344 343 343 340 340 341 340 338 337 337 337 336 337 336 336 336 336 337 337 337 337 338 340 340 340 341 340 340 340 340 339 339 338 338 337 336 334 333 333
342 343 342 340 340 341 343 348 349 348 347 347 348 348 346 345 347 349 346 344 346 343 337 339 341 336 336 339 339 337 336 338 341 340 342 343 342 341 341 341 340 339 340 340 342 343 338 338 341 339 339 340 340 340 339 337 335 334 334 334 334 335 335 334 334 334 336 338 340 340 340 339 338 336 335 334 333 331 330 328 326 324 323 322 323
341 342 341 340 341 343 346 348 349 348 346 347 347 347 346 344 347 349 343 343 348 342 335 337 336 333 337 341 340 337 334 337 341 340 340 342 342 342 341 340 338 339 340 339 339 338 332 330 332 332 334 336 338 340 339 337 334 331 331 329 329 330 329 328 327 326 329 331 333 333 331 329 326 324 323 322 320 319 318 317 316 316 316 315 316
340 341 340 341 341 343 348 349 349 348 346 347 347 347 346 344 348 348 342 344 350 345 337 336 334 336 341 342 341 339 337 336 340 341 340 341 342 342 342 339 337 337 337 336 336 336 331 325 326 326 327 332 337 338 337 336 333 328 327 325 323 324 323 322 321 320 321 321 321 321 319 318 317 316 316 315 316 315 315 315 315 315 315 314 314
338 339 340 341 342 343 348 350 350 348 347 348 348 347 346 345 348 348 343 344 348 347 344 335 330 337 340 341 343 342 339 337 339 341 340 340 341 341 342 340 335 333 333 335 337 338 333 328 331 330 326 328 333 332 330 329 326 322 322 321 320 320 319 319 319 318 318 317 317 317 317 317 317 318 318 318 318 318 318 318 318 317 317 317 316
338 339 340 341 341 343 348 349 349 349 349 349 349 348 347 346 350 350 344 342 344 346 347 338 328 334 339 341 344 343 342 341 340 339 340 341 341 340 340 338 334 334 334 336 338 338 334 333 337 335 328 329 329 327 325 324 323 322 321 320 319 319 318 318 318 318 318 318 319 320 320 321 321 321 321 321 321 321 322 321 321 321 321 321 320
341 339 339 340 341 343 347 349 349 350 350 350 350 350 349 349 350 351 346 342 340 339 344 343 332 330 337 341 343 341 342 344 341 339 340 338 339 340 341 338 337 338 338 337 338 337 334 336 339 335 330 332 333 330 327 324 323 324 323 321 320 320 319 318 318 319 320 321 322 323 323 323 323 322 322 322 322 321 322 321 322 322 322 322 322
342 341 340 339 340 341 345 348 349 349 350 350 350 350 350 350 349 350 346 342 340 334 337 342 336 331 335 338 342 340 340 344 342 339 341 340 338 340 341 339 339 339 338 336 336 336 334 336 339 336 332 334 337 336 331 326 325 326 324 324 324 323 323 323 322 323 323 324 325 324 324 323 323 322 322 322 322 322 322 322 322 322 322 322 322
345 343 342 340 339 340 342 345 347 349 349 348 351 352 351 350 348 349 347 342 341 336 329 334 339 342 341 337 340 340 339 343 342 339 342 343 341 341 340 339 338 338 337 336 334 335 336 335 336 336 334 335 336 336 333 329 326 326 326 326 326 326 326 325 325 325 325 325 325 325 325 324 323 322 322 322 322 322 321 322 322 322 323 323 323
349 347 346 342 340 339 340 342 344 347 348 348 350 352 352 350 348 348 347 344 343 339 328 325 338 346 345 339 335 338 340 342 342 341 341 343 342 341 340 338 337 337 337 336 335 335 337 335 334 337 337 336 335 335 334 332 328 328 327 327 327 327 326 326 326 326 326 326 325 325 324 324 323 323 322 322 322 321 321 321 321 321 322 323 324
352 349 347 345 341 340 340 340 341 344 346 347 349 352 354 353 350 347 346 345 343 341 330 323 330 338 341 337 329 332 340 340 341 343 340 340 341 341 341 338 337 337 336 336 336 336 338 335 334 336 336 336 337 336 336 335 331 330 329 328 328 328 327 327 327 326 327 326 326 325 324 323 323 323 323 322 322 322 321 321 321 321 321 322 322
352 349 346 345 343 342 341 341 342 342 343 345 347 351 355 356 353 348 346 344 342 343 335 324 324 326 332 338 333 331 340 340 340 343 340 338 341 342 341 339 338 337 337 337 337 336 337 335 335 336 335 335 336 336 336 335 331 330 332 331 330 329 328 328 327 327 327 327 326 325 324 324 323 323 323 323 324 324 323 323 322 321 321 321 321
347 346 344 344 343 342 341 341 342 342 341 343 344 348 354 356 355 350 346 345 342 342 338 327 324 322 325 338 342 338 340 341 340 343 342 337 337 339 341 340 337 337 338 338 337 337 336 335 335 336 336 336 336 336 335 334 332 333 334 335 334 331 329 328 328 328 328 326 326 325 324 324 323 324 324 324 325 325 324 323 322 321 320 320 319
339 342 344 345 343 341 340 340 341 341 340 341 342 344 349 353 353 349 344 344 343 342 340 332 326 324 322 330 341 343 343 342 341 342 343 341 338 336 339 340 337 338 340 340 339 337 337 337 336 336 336 336 335 335 334 333 333 336 337 336 334 330 327 327 328 327 327 326 325 324 324 324 323 324 325 325 326 326 326 324 322 321 319 318 317
339 340 343 345 345 342 342 340 341 341 341 342 342 342 345 348 349 346 343 343 343 342 342 338 330 326 323 324 334 343 345 343 341 341 341 341 342 339 338 338 337 337 339 341 340 337 334 336 337 337 337 335 334 333 331 330 329 332 335 335 333 330 326 326 328 328 327 327 325 323 323 323 324 325 326 326 327 327 326 326 324 323 321 318 317
343 343 343 345 347 346 343 341 340 341 343 344 344 343 342 345 346 345 342 341 342 342 341 342 337 330 325 322 327 337 343 344 342 343 341 339 342 342 340 338 336 337 339 340 340 339 337 337 336 336 337 336 335 334 332 330 328 327 329 331 331 328 325 325 326 327 328 328 326 324 323 323 325 326 326 327 327 327 326 325 325 324 322 319 317
345 346 346 346 347 347 346 344 341 340 341 343 344 345 344 343 344 343 342 340 341 342 340 341 341 337 329 324 323 329 338 342 342 343 343 341 340 341 341 339 334 337 343 341 338 339 338 338 336 335 337 337 336 336 335 333 329 326 326 326 327 326 325 325 324 325 328 328 326 324 323 324 325 326 326 327 327 326 324 324 324 323 321 319 318
342 344 346 347 347 348 348 347 345 342 340 340 342 346 345 344 344 342 340 341 340 341 341 340 340 341 336 329 323 324 330 336 337 340 342 342 340 339 339 337 330 332 341 344 342 341 338 337 338 337 336 337 337 336 335 334 331 327 325 325 326 325 324 325 324 324 326 327 326 324 324 325 326 327 327 328 327 326 324 324 323 321 321 321 321
342 342 343 346 348 349 348 348 349 346 341 339 341 343 345 345 344 342 339 339 339 340 341 341 340 340 340 334 326 323 325 329 331 333 338 339 336 334 333 331 327 326 333 338 340 341 341 338 339 339 338 337 338 337 335 333 331 329 326 325 325 325 324 324 324 324 325 325 325 324 324 325 327 328 328 328 327 327 326 325 322 322 323 324 324
344 343 341 341 345 350 351 350 350 348 343 340 341 342 343 342 342 342 340 338 337 338 340 341 340 339 340 338 332 325 323 325 326 326 332 336 334 330 329 327 325 324 326 328 330 334 338 338 338 340 340 339 338 338 337 335 332 329 328 327 325 324 325 325 324 324 325 325 325 325 326 327 328 329 329 328 328 329 328 326 323 324 325 325 325
345 344 342 341 342 348 352 351 350 349 346 344 343 342 342 342 341 340 341 339 337 336 338 340 340 339 339 339 336 331 325 323 324 322 326 332 333 330 327 326 324 323 323 325 324 324 329 333 336 338 340 340 340 339 338 338 336 332 329 328 327 326 324 324 325 325 324 325 327 329 330 331 331 330 330 329 329 329 329 328 326 326 327 326 325
348 346 343 343 342 343 347 351 351 349 348 347 345 344 342 342 341 340 339 340 339 337 337 338 339 339 339 338 337 334 330 325 324 322 322 327 332 333 329 327 326 325 323 324 324 323 323 326 331 334 335 337 339 339 339 339 338 336 333 330 328 327 325 324 324 326 327 328 330 332 332 332 332 331 331 331 330 330 329 329 328 329 328 326 325
350 349 345 345 345 344 343 348 352 350 348 348 347 346 345 343 342 340 339 339 339 338 336 336 337 337 338 338 336 335 334 331 327 325 322 322 327 332 333 330 328 327 326 326 325 324 325 324 327 329 332 334 337 338 338 338 336 335 334 332 329 326 325 325 325 326 328 330 331 332 332 332 332 332 333 333 332 330 330 330 330 329 329 326 325
348 349 348 346 346 346 344 344 348 349 349 349 348 347 347 345 345 344 341 338 339 340 338 336 336 337 337 338 337 335 335 335 332 329 326 323 323 326 330 330 329 329 330 330 330 329 328 326 326 329 332 337 339 339 338 338 336 335 334 333 331 328 327 328 328 329 331 332 332 332 333 334 335 335 334 333 332 331 331 331 330 330 328 327 326
346 348 348 347 345 346 346 344 345 347 348 349 349 348 347 347 349 348 345 341 339 340 341 339 338 338 338 338 338 338 337 336 335 333 331 328 325 324 325 326 327 328 330 331 333 335 334 331 328 328 332 336 340 341 340 338 337 336 334 333 332 330 330 330 330 331 334 335 334 334 335 336 335 334 334 333 332 332 331 331 330 329 328 327 326
346 349 349 348 345 345 346 346 345 347 348 348 348 348 347 348 352 351 348 344 341 341 342 341 340 339 338 339 339 339 338 337 336 335 333 332 331 328 326 324 325 327 329 329 331 335 336 336 333 330 329 332 336 339 340 339 338 337 336 336 335 332 329 330 330 332 335 335 335 334 334 334 334 334 335 334 333 333 332 331 331 329 328 327 325
350 351 352 351 349 348 348 347 346 347 348 346 346 348 348 349 351 353 351 347 344 342 340 340 342 340 338 339 339 339 339 338 337 337 335 334 334 333 331 328 325 325 326 328 329 331 334 336 335 332 329 329 332 335 339 340 339 336 335 336 338 336 333 332 332 334 336 335 334 334 333 333 334 335 334 333 333 333 333 332 331 330 328 327 326
354 355 355 354 354 354 353 350 349 348 346 344 343 345 347 347 349 351 351 348 346 344 341 340 341 340 339 340 341 338 338 339 338 338 338 336 335 334 333 332 330 328 326 328 329 330 331 333 335 335 334 332 331 333 337 339 337 334 333 335 337 337 337 336 334 335 337 337 337 337 335 335 336 335 334 333 333 333 333 331 328 328 327 327 326
355 356 357 357 356 357 357 355 353 350 346 341 340 341 343 344 345 347 349 348 347 345 344 342 342 342 341 342 344 343 341 340 339 339 340 339 337 336 335 334 333 332 331 330 331 331 332 333 333 335 337 335 332 332 334 336 336 335 335 337 337 336 337 338 337 335 335 335 336 337 337 336 336 336 335 334 334 333 331 329 326 326 327 326 326
353 355 357 358 358 357 359 359 357 354 348 342 338 338 339 340 343 344 346 347 346 345 344 343 342 342 341 342 344 346 347 346 344 342 341 341 340 339 338 337 335 335 334 334 334 334 334 335 336 336 338 337 336 334 334 335 336 337 337 337 338 338 339 339 338 336 333 333 334 335 335 335 336 336 336 335 333 330 328 327 327 327 327 327 327
352 352 355 356 357 357 358 361 361 358 354 348 344 340 338 339 341 343 344 345 345 344 343 342 342 342 341 341 343 346 348 349 348 347 345 343 342 342 341 340 338 337 336 336 336 336 336 337 338 338 339 339 339 338 337 337 338 339 339 339 339 339 339 339 338 336 335 335 335 335 335 335 335 335 335 333 330 329 329 328 328 328 328 328 327
350 350 352 353 355 355 356 360 363 362 359 355 352 348 344 342 342 342 344 345 345 344 343 342 342 341 341 342 343 345 347 348 349 349 349 347 345 343 343 343 341 339 339 338 337 337 338 338 339 340 340 340 341 340 339 338 339 340 340 340 340 339 339 339 338 337 338 337 336 336 335 335 335 335 334 332 330 330 330 329 328 328 327 326 325
348 348 350 352 354 355 355 356 359 362 363 361 359 356 353 350 347 345 344 345 345 346 345 344 343 343 342 342 342 343 346 348 348 349 350 349 348 346 345 345 343 342 340 340 339 338 338 339 341 341 341 341 341 342 341 340 340 341 340 340 340 339 338 338 338 339 340 339 336 336 336 334 334 333 332 330 330 329 328 328 327 326 325 325 323
349 349 350 352 354 355 356 356 357 359 362 363 362 361 359 357 354 351 348 348 348 347 347 347 347 346 345 345 344 344 346 348 348 348 349 349 349 348 347 345 343 343 341 340 340 339 338 338 339 341 342 343 343 342 342 342 341 340 340 340 339 339 338 339 339 340 340 338 337 336 334 332 332 331 331 331 330 328 327 326 326 325 325 324 322
352 352 353 354 355 357 358 358 357 356 358 361 362 361 361 362 361 358 355 352 352 350 350 350 350 350 349 349 349 348 347 347 347 347 348 349 350 350 348 346 343 343 343 341 340 340 339 337 337 340 342 343 344 343 343 343 342 340 340 339 339 339 338 339 340 341 340 339 337 334 332 331 331 330 331 332 329 328 327 325 324 323 322 322 321
355 355 355 355 355 356 357 358 357 355 355 358 361 361 362 363 363 362 360 357 355 353 352 353 353 353 353 352 351 351 350 349 349 348 348 350 350 350 350 347 344 343 342 342 343 343 342 339 338 340 342 343 344 344 344 343 342 341 340 339 339 339 339 339 340 340 339 338 336 332 331 332 331 329 330 331 328 327 325 323 321 321 321 322 322
356 357 358 358 357 357 357 357 358 357 356 357 358 360 362 362 363 363 361 360 358 355 354 354 355 355 355 355 354 354 353 352 351 350 350 351 350 349 350 349 347 344 341 341 344 345 343 342 341 341 342 343 343 344 345 344 343 342 340 339 339 339 339 338 338 338 337 335 334 333 333 332 330 330 330 330 327 326 325 323 322 322 322 322 321
359 359 361 362 362 361 361 360 361 361 361 360 359 359 360 361 362 363 363 362 361 358 357 356 354 354 355 356 357 356 355 355 354 352 352 353 352 350 349 350 349 345 340 338 341 343 343 342 342 343 343 344 343 344 344 344 344 343 341 340 340 339 338 338 337 337 336 333 332 334 334 332 331 330 330 329 327 326 324 323 322 322 322 321 320
Wind_Speed
6 4 4 4 3 3 1 0 0 2 2 2 3 3 3 3 2 3 2 2 2 2 1 3 2 2 4 5 6 8 6 3 3 3 3 3 4 4 5 5 5 5 5 5 5 5 6 6 7 6 7 7 7 7 6 6 6 7 7 6 5 4 4 4 5 5 5 5 4 4 3 2 1 1 1 2 2 3 4 4 4 3 3 2 2
7 6 6 6 6 4 3 2 1 1 2 2 3 3 2 2 2 2 2 1 2 2 1 3 3 5 6 7 7 7 6 3 6 3 3 3 4 4 5 6 5 4 3 4 5 5 5 5 6 6 6 6 6 6 6 6 6 6 6 6 6 5 5 4 4 4 4 4 4 3 2 2 1 0 1 2 2 3 3 4 4 3 3 3 3
8 8 8 7 6 5 4 3 0 1 2 2 3 2 2 2 2 1 1 1 2 2 3 5 5 5 6 7 6 5 6 3 4 1 4 3 3 4 5 5 4 3 2 2 3 4 5 5 6 5 5 6 6 6 6 6 6 6 6 6 5 6 5 4 4 3 3 3 3 2 2 1 1 2 2 4 4 4 4 4 4 4 3 3 4
9 10 8 6 6 5 3 3 2 3 2 1 2 2 1 2 2 2 3 3 2 3 6 7 5 4 5 5 3 3 4 4 3 1 3 3 2 3 4 4 4 3 2 1 1 2 4 4 5 5 5 5 6 6 6 6 5 6 6 6 5 5 5 4 4 4 3 3 2 2 2 2 2 2 3 4 4 4 5 5 5 5 6 5 4
12 11 10 8 6 5 4 5 4 4 4 2 2 3 1 2 2 3 3 2 2 4 6 6 5 4 4 5 2 1 2 3 3 1 2 2 2 2 4 3 3 3 2 1 1 1 2 4 5 5 5 5 5 5 6 6 5 5 5 5 5 5 5 5 4 4 4 3 3 2 2 2 3 3 3 3 3 4 5 5 5 5 6 6 6
13 11 11 10 7 7 7 6 6 4 4 2 0 2 1 2 2 2 2 3 3 5 5 6 5 2 1 4 3 1 5 7 7 2 2 2 2 2 3 3 2 3 2 2 1 1 1 3 3 4 4 4 4 4 5 5 5 4 5 5 4 5 5 5 5 5 4 4 4 3 3 3 3 4 4 4 4 4 4 5 5 5 6 7 7
13 11 11 10 7 6 6 7 6 5 4 2 1 1 1 2 2 2 3 4 5 7 7 7 5 2 2 4 5 3 5 5 7 3 1 2 1 1 2 3 3 3 3 2 2 2 2 2 2 3 3 3 3 4 4 4 4 5 5 5 5 5 5 5 6 6 5 5 5 4 4 5 5 5 5 5 5 5 5 5 6 5 5 6 7
13 11 10 10 8 5 6 6 5 5 4 1 1 1 1 1 1 2 4 5 6 6 7 7 4 3 3 5 5 3 1 2 4 4 1 2 1 2 3 3 3 3 3 3 2 3 3 2 2 2 2 3 3 4 4 4 4 5 5 5 5 6 6 6 6 6 6 6 6 6 6 6 7 7 7 7 7 7 6 7 7 7 7 8 8
13 13 11 10 9 7 6 6 5 6 4 2 2 1 1 1 1 2 4 7 6 3 3 5 3 2 5 5 3 3 2 2 4 4 3 2 0 2 4 3 3 3 3 3 4 3 2 2 2 2 3 3 3 3 3 3 4 4 5 5 6 6 6 6 6 6 7 7 7 8 8 8 8 8 8 8 8 8 8 8 9 9 9 9 9
14 14 12 11 10 8 7 6 5 5 4 2 1 1 1 2 2 3 3 7 7 2 2 4 5 4 5 3 3 4 4 2 3 5 4 3 3 2 4 5 3 4 4 3 4 3 2 2 2 2 2 2 2 2 2 2 3 3 3 4 5 6 7 7 7 7 8 8 8 9 8 8 8 9 8 9 8 8 9 9 10 10 10 10 11
15 15 13 12 12 9 8 7 6 4 4 2 1 1 1 2 1 3 3 4 5 3 3 5 6 4 3 3 5 7 6 4 3 6 4 3 3 2 3 5 4 4 5 4 2 1 2 2 2 2 1 1 1 2 2 2 2 2 2 2 3 4 6 6 6 8 8 9 9 9 9 8 9 8 8 9 8 8 9 9 10 11 11 11 11
15 15 14 14 13 11 9 8 7 5 4 3 1 1 1 1 0 2 3 4 6 5 2 4 5 4 4 2 4 6 4 4 4 4 5 4 3 4 5 5 4 4 4 4 2 1 2 3 3 2 1 0 1 1 2 1 2 2 2 2 2 3 4 4 5 6 7 9 9 8 8 9 8 8 8 9 9 9 10 10 11 11 11 11 11
14 15 14 14 14 12 10 8 8 6 4 3 2 2 2 1 1 1 3 5 6 4 2 4 6 3 5 4 2 5 1 4 7 4 4 5 4 5 6 5 4 4 5 5 3 1 2 3 3 3 2 1 1 1 1 1 1 2 2 2 1 2 3 3 4 5 6 7 7 7 7 7 7 7 8 8 9 9 10 10 9 9 9 9 9
15 15 15 14 13 12 11 9 8 7 5 3 3 3 3 2 1 2 4 5 3 4 3 6 6 3 7 6 4 6 5 3 7 5 4 6 5 5 6 5 3 5 7 8 5 2 3 2 3 3 3 2 2 1 1 1 1 0 1 0 0 1 1 2 2 3 4 4 4 4 4 5 5 5 6 6 6 6 7 6 6 6 6 7 7
16 15 14 14 13 12 11 9 8 7 5 4 4 5 4 3 2 2 5 4 3 5 6 4 4 3 7 8 6 7 7 7 7 4 4 6 5 6 6 5 4 3 5 8 7 1 3 1 3 3 2 3 4 2 2 4 3 3 3 3 3 2 2 2 1 1 0 1 1 2 2 2 3 3 3 3 3 4 4 5 5 5 6 6 6
17 15 15 14 13 12 11 10 8 7 6 5 5 5 5 3 3 3 6 4 4 3 3 7 8 6 7 6 7 8 5 7 9 6 4 6 6 6 5 5 8 8 4 5 3 3 3 3 3 3 1 1 3 2 2 4 4 2 2 3 3 2 2 2 2 2 2 2 1 1 1 1 1 1 2 2 3 4 5 6 6 7 7 7 7
16 15 15 14 13 12 10 10 9 7 6 6 6 5 5 3 3 3 7 4 4 3 2 9 10 8 7 4 3 6 6 8 11 9 6 7 7 7 5 3 7 10 7 5 4 2 3 4 4 3 2 2 2 2 3 3 3 2 2 2 2 2 1 1 1 1 1 1 1 1 1 2 2 3 3 4 4 4 5 6 7 7 8 8 8
17 15 15 14 13 12 11 11 9 7 7 6 6 5 4 3 2 3 6 5 4 3 2 5 9 10 9 6 5 3 4 7 11 10 9 8 6 5 5 4 4 8 7 5 3 1 3 4 5 5 2 2 3 3 3 3 2 2 2 3 2 2 1 1 1 1 0 1 2 2 2 2 3 3 4 4 5 5 5 6 7 7 8 8 9
17 16 16 14 14 13 12 12 10 8 8 7 6 6 4 3 4 3 5 8 9 7 3 2 6 11 10 7 3 1 3 6 10 12 11 8 5 5 5 4 5 8 6 4 3 4 1 5 4 3 1 1 1 2 3 2 1 2 2 2 3 3 2 1 1 0 1 2 2 2 3 3 3 4 4 5 5 6 6 7 7 8 8 8 9
17 17 17 15 14 14 13 12 11 10 9 8 7 7 6 5 5 5 5 8 9 8 8 4 4 11 12 7 3 5 6 6 8 12 9 7 8 7 5 4 5 7 5 4 6 8 1 5 3 2 2 2 1 1 2 2 2 3 3 3 3 4 3 3 2 2 2 2 2 2 3 3 4 4 5 5 6 6 7 7 7 7 8 8 9
17 18 18 16 15 15 14 13 12 11 10 9 8 8 8 6 7 8 8 8 6 5 9 9 5 8 10 8 6 6 6 6 7 11 10 7 9 9 7 6 7 7 5 3 6 7 3 1 1 4 5 3 2 3 2 2 3 3 3 3 4 4 3 3 3 2 2 2 2 3 3 4 4 5 5 6 6 7 7 7 8 8 8 8 9
17 18 19 18 17 16 16 14 13 12 11 10 9 9 10 9 9 10 9 8 6 3 8 10 8 7 8 8 11 8 8 7 7 8 9 8 9 9 9 7 7 9 6 3 5 6 6 4 3 5 4 4 2 5 3 1 2 1 0 1 2 3 3 2 2 2 2 3 3 4 4 5 5 5 6 6 7 8 8 9 9 10 10 10 10
19 17 19 19 18 17 17 17 15 14 13 12 11 11 10 10 10 11 10 9 8 4 6 9 11 10 8 9 12 12 11 10 9 7 5 8 8 7 8 9 7 9 8 6 7 5 4 3 1 5 6 9 6 4 6 5 2 1 2 2 2 1 1 1 2 2 3 4 4 5 5 6 7 7 7 7 8 8 9 9 10 10 11 11 11
21 18 18 19 19 17 17 18 17 17 15 13 13 12 11 10 11 11 10 10 10 7 6 9 10 10 8 8 11 13 10 9 10 9 6 7 7 5 6 9 10 12 13 10 8 6 5 3 3 4 7 8 6 4 9 10 7 5 5 4 4 4 4 3 4 4 4 5 5 6 6 7 8 8 9 9 10 10 10 10 10 11 11 11 11
24 21 20 20 19 18 18 18 18 18 16 15 14 13 13 13 13 12 11 11 11 9 7 8 10 9 8 7 8 10 8 8 9 9 8 8 9 8 5 7 10 12 12 10 9 9 9 8 7 7 7 8 10 9 11 13 10 6 5 6 8 8 7 6 6 6 6 7 7 7 8 8 9 10 11 11 12 13 13 13 13 13 13 13 13
26 24 22 21 21 20 19 19 19 18 17 16 16 15 15 16 15 14 13 12 12 12 10 9 10 10 10 10 9 9 8 9 9 10 9 8 10 12 7 5 7 8 10 10 8 8 8 7 8 10 10 10 13 13 13 14 11 7 7 10 12 11 10 8 8 9 9 9 8 9 9 9 10 10 11 12 13 14 15 15 15 15 15 14 14
26 25 23 22 21 21 20 19 20 20 18 17 17 17 17 18 17 15 13 13 14 14 12 11 12 11 11 12 13 11 9 9 10 11 11 9 9 10 10 8 9 7 8 9 7 7 9 9 8 10 13 14 15 15 15 14 12 11 11 13 14 12 11 10 11 11 11 11 10 10 10 10 10 11 11 13 14 15 16 16 16 16 16 16 16
25 25 24 23 22 22 21 20 20 20 19 18 18 18 19 19 19 17 15 15 16 16 15 14 14 14 13 13 14 15 13 11 11 11 12 10 9 10 12 13 12 9 7 8 7 6 8 11 11 12 16 17 14 12 13 13 12 13 14 14 14 14 13 12 12 13 13 12 11 11 11 11 11 11 12 13 14 15 16 16 17 16 16 16 17
25 24 25 25 24 24 23 22 20 20 20 20 19 20 20 20 21 20 18 17 18 18 18 17 16 16 16 16 15 16 16 15 14 13 13 13 10 11 14 15 15 13 10 11 11 8 8 10 11 14 17 17 15 12 12 12 13 13 14 14 15 15 15 14 14 14 14 14 13 12 12 11 11 11 12 12 13 14 15 16 16 16 16 16 17
27 26 25 25 25 25 26 25 24 22 21 21 20 20 22 22 22 21 19 19 20 20 20 19 19 18 18 19 17 17 18 18 18 17 15 16 17 16 17 17 16 16 13 12 13 11 10 9 10 13 16 17 16 14 13 13 14 13 13 14 15 16 16 15 15 14 15 15 14 13 13 12 12 12 12 12 13 14 15 15 15 15 15 15 16
30 28 27 26 25 26 27 27 26 24 23 22 22 21 23 23 23 23 21 21 22 22 22 22 21 21 20 21 21 20 21 21 21 20 18 19 20 20 20 18 17 17 16 15 14 12 10 10 10 12 14 14 14 15 15 15 15 13 13 15 16 17 16 16 15 14 14 15 15 14 14 13 13 12 12 12 12 13 13 13 12 12 12 14 16
31 30 29 28 27 27 27 28 28 27 25 24 24 24 24 24 24 24 23 23 23 23 23 23 24 23 23 22 23 23 23 24 23 22 21 21 22 21 21 19 18 17 18 19 18 14 13 12 10 11 14 14 14 16 16 15 15 14 13 14 16 17 17 16 16 15 14 15 15 15 15 14 14 13 12 12 13 13 13 12 10 9 12 16 18
32 31 31 30 29 28 27 28 28 28 27 26 26 26 26 26 26 25 25 25 25 25 25 25 25 25 25 24 24 24 25 26 26 25 24 23 23 23 21 21 20 19 19 20 20 18 16 16 13 12 14 15 16 16 15 15 16 15 13 13 15 16 16 16 15 15 14 15 15 15 15 14 14 14 14 14 14 15 14 13 11 12 16 20 20
33 33 32 32 31 30 29 28 29 28 28 28 28 28 28 28 28 27 27 27 27 26 26 27 26 26 26 25 25 25 26 27 27 27 26 25 25 25 24 23 23 22 20 20 21 21 19 19 17 16 14 12 14 16 16 16 17 17 16 15 15 16 17 16 16 15 15 15 15 14 15 15 15 16 16 16 16 17 17 16 15 17 21 22 22
34 34 33 32 32 32 31 31 30 30 29 30 30 30 30 30 30 29 29 29 29 28 28 28 28 27 28 27 26 26 27 27 27 28 28 26 26 26 25 24 24 24 23 22 22 22 21 20 20 20 19 17 16 18 18 18 19 19 19 18 18 17 17 17 17 16 15 15 15 16 16 17 17 17 18 18 18 19 19 19 19 21 23 24 22
35 34 34 33 33 33 33 33 32 32 32 32 32 32 32 32 32 32 31 31 31 31 30 30 29 29 28 29 28 27 27 28 28 27 27 27 27 27 26 25 25 25 24 24 24 23 22 22 21 21 21 21 21 21 21 20 21 20 20 20 20 19 17 17 17 16 16 17 18 19 18 18 19 19 19 20 20 19 20 20 21 23 25 24 21
36 35 35 35 34 34 34 34 34 34 33 33 34 34 34 34 33 33 33 33 33 33 32 31 31 30 30 29 29 28 28 28 29 28 28 28 28 29 29 28 27 26 25 25 25 24 24 24 23 22 21 21 21 22 22 22 22 22 20 20 21 21 19 18 18 18 17 18 19 19 18 19 20 20 21 20 20 20 21 21 23 24 24 21 18
38 36 36 36 36 36 35 35 35 35 35 34 35 35 35 35 34 34 34 34 33 34 33 33 32 32 31 30 30 30 30 30 30 29 29 29 29 30 30 30 29 27 27 26 26 26 26 25 24 23 23 23 23 24 24 23 23 23 22 21 21 22 21 20 20 19 18 19 19 18 19 20 21 21 21 20 20 20 21 22 23 22 19 16 15
38 37 37 37 37 37 37 36 36 36 36 35 35 35 35 35 35 35 35 34 34 34 34 34 34 33 33 32 32 32 32 32 31 31 31 30 31 31 31 31 30 29 29 28 28 28 28 27 26 26 25 25 25 25 25 24 23 23 23 22 22 22 21 21 21 19 20 21 20 19 19 20 20 20 20 20 20 20 20 20 20 17 14 13 13
37 36 36 36 37 37 37 37 37 37 37 37 37 36 36 36 36 36 36 36 35 35 35 35 35 35 35 35 35 34 34 34 33 33 33 32 32 32 32 31 31 31 30 30 30 30 30 29 28 27 27 26 27 26 25 25 25 25 25 25 24 23 21 20 19 18 20 21 21 20 20 19 20 20 21 21 21 20 20 20 18 15 13 12 14
36 35 34 34 35 36 37 37 38 38 38 38 38 38 38 37 37 38 38 38 37 36 36 36 36 37 36 36 37 37 36 36 35 35 35 34 34 34 33 33 32 32 32 31 31 31 31 31 31 29 27 27 27 27 27 28 28 27 25 25 26 25 23 22 21 19 20 21 21 21 21 20 20 21 22 22 21 21 20 18 16 15 13 13 14
36 35 34 33 33 35 36 37 38 38 39 39 39 39 39 39 39 39 39 39 39 38 37 37 38 38 37 37 38 38 37 37 37 37 36 36 35 35 34 33 33 33 33 33 33 32 32 32 32 31 29 29 29 28 29 29 28 26 24 25 25 25 24 24 23 22 21 21 21 21 21 21 21 22 23 22 21 20 18 15 13 13 13 14 16
39 38 36 34 34 34 36 38 39 40 40 40 40 40 40 40 40 40 40 40 40 40 40 39 40 39 39 39 39 39 38 39 39 38 37 37 36 36 35 34 34 34 34 34 34 34 33 33 33 32 31 31 29 28 29 28 28 27 25 24 24 24 25 25 25 25 23 21 20 21 21 20 21 21 22 20 16 14 13 13 14 14 14 16 18
40 40 39 38 37 36 36 37 39 40 41 41 41 40 40 40 40 40 41 41 41 42 42 42 42 41 41 41 40 40 40 40 40 39 39 38 37 37 36 35 34 34 35 35 34 35 35 34 34 34 33 32 29 28 28 28 27 26 25 24 23 23 24 25 25 25 23 19 19 20 20 19 19 20 20 16 12 10 11 13 14 14 15 17 20
41 42 42 42 41 39 38 38 39 40 40 39 40 40 40 40 40 40 41 42 42 43 43 43 43 43 43 43 42 42 41 41 41 41 41 40 39 38 37 37 36 35 36 36 35 35 35 35 36 36 35 32 29 28 27 26 26 26 27 26 24 23 24 26 26 25 23 20 20 20 20 19 19 19 19 15 11 10 11 13 14 15 18 20 22
43 44 44 43 43 42 41 41 41 40 40 39 39 39 39 39 39 40 41 43 44 44 45 44 44 44 45 45 44 44 42 41 41 42 43 42 41 40 39 39 39 38 38 38 38 37 37 37 37 38 36 33 30 28 25 25 26 28 29 29 27 26 25 25 24 23 23 23 21 20 21 20 19 19 16 12 11 12 13 14 15 17 20 22 24
44 44 44 44 44 43 42 42 42 42 41 41 40 40 39 38 38 39 40 43 45 46 46 46 45 45 45 45 45 45 43 42 42 43 44 44 43 42 42 41 41 41 41 42 41 40 39 39 39 39 37 34 32 29 25 25 27 28 28 29 28 26 25 24 24 24 25 25 22 21 22 21 18 16 13 10 10 12 13 14 16 18 21 23 23
42 43 44 44 43 43 43 42 43 44 44 42 42 43 42 40 39 38 39 41 44 47 47 47 46 46 46 45 45 45 44 43 44 44 45 44 44 44 44 44 43 44 45 45 44 43 42 41 40 40 39 36 35 32 28 28 28 28 28 29 28 27 26 26 26 25 25 26 23 22 22 19 14 13 13 13 15 16 16 17 18 20 21 21 19
41 42 43 43 43 43 43 44 45 46 46 44 42 42 42 42 40 40 40 40 42 45 48 48 47 46 46 46 45 45 45 45 44 44 44 44 44 45 46 45 45 46 47 47 46 46 44 42 41 41 40 38 37 35 32 30 30 31 32 32 31 31 30 29 28 26 25 24 24 22 20 16 13 13 14 17 19 19 18 17 17 17 16 15 17
40 39 39 39 41 42 43 44 44 45 45 44 43 43 42 42 42 42 42 41 41 44 46 47 48 47 47 48 47 47 47 46 45 44 44 45 45 46 47 47 47 49 49 48 47 48 46 44 43 42 42 41 40 39 36 34 33 33 35 35 34 33 31 30 27 25 24 24 23 22 19 15 13 14 15 18 19 18 16 14 13 13 15 17 20
38 37 35 35 36 37 38 39 40 41 41 41 41 42 41 41 42 43 42 42 43 45 45 46 47 48 48 48 48 49 49 47 46 45 45 46 47 47 48 49 51 52 51 48 48 49 49 47 45 44 44 44 43 42 41 39 37 37 37 36 34 30 27 25 23 22 23 23 20 20 20 19 16 16 18 20 18 15 13 11 12 15 19 20 20
Wind_Direction
206 200 182 178 214 198 175 353 32 311 323 40 43 26 15 19 26 31 17 354 4 6 44 6 337 124 106 105 94 86 114 190 268 332 13 97 128 130 117 104 107 120 140 155 161 163 162 160 160 161 159 156 153 148 152 159 155 158 165 168 171 169 158 145 142 150 159 166 173 181 188 185 165 101 67 49 35 26 26 28 30 24 11 9 357
195 188 193 197 217 209 197 213 160 247 306 353 32 26 340 342 3 334 308 300 11 355 83 59 66 95 86 92 84 65 90 177 254 295 38 90 123 129 126 112 107 114 129 154 170 179 181 177 172 171 166 163 162 156 157 158 157 162 169 175 177 178 173 155 150 154 159 171 180 186 191 194 210 302 322 328 339 354 358 4 17 20 7 359 347
191 188 200 204 211 212 208 214 233 272 319 351 20 15 293 334 350 311 328 100 53 42 93 88 83 80 71 78 83 72 86 143 228 285 42 59 120 134 130 120 109 106 106 140 170 187 193 192 183 185 178 171 169 164 167 167 165 169 174 181 183 184 183 167 167 175 175 179 185 193 203 216 256 283 294 302 313 324 326 328 338 344 343 343 341
190 187 194 201 209 212 208 214 236 270 285 320 320 284 266 357 2 33 65 88 61 67 89 90 92 99 91 81 110 111 91 147 186 332 355 28 94 142 137 130 110 98 86 117 165 188 196 202 194 195 196 186 180 174 178 179 176 177 179 184 186 187 189 182 184 193 195 196 200 209 224 241 256 269 279 286 299 312 312 314 316 318 315 318 326
200 195 195 188 202 211 195 211 226 242 254 271 278 247 234 358 353 22 45 67 51 71 90 105 105 83 85 88 132 173 95 157 157 317 296 11 44 129 125 119 98 102 104 88 155 169 178 198 201 200 202 199 193 187 188 189 186 188 189 187 189 192 195 195 197 207 214 214 217 218 220 237 251 257 265 272 284 299 304 308 309 310 308 307 312
211 208 207 189 197 217 198 210 225 228 250 279 267 194 131 4 348 6 25 54 66 85 103 130 116 51 135 113 76 130 140 130 118 116 273 334 32 81 101 108 101 104 102 62 71 107 137 181 192 201 205 206 203 203 206 205 200 200 202 199 195 197 202 207 212 216 225 231 233 232 231 238 250 257 263 270 277 289 298 302 304 307 308 306 304
215 211 211 194 194 225 218 217 225 233 254 275 279 227 18 7 355 4 34 63 82 89 92 105 95 25 191 126 62 110 158 133 122 125 285 302 34 79 87 94 116 109 89 67 54 73 87 123 173 185 192 198 201 210 219 223 219 215 215 211 206 205 207 215 224 228 233 238 238 239 243 245 249 255 261 267 274 278 284 288 288 292 294 294 291
215 212 209 200 192 215 240 236 234 245 250 267 305 338 357 329 349 26 58 82 86 77 82 95 85 35 101 112 93 114 257 288 150 146 148 227 295 88 105 73 102 107 74 78 73 64 79 90 139 167 169 173 181 196 213 222 225 228 227 223 221 217 215 221 230 235 239 242 244 243 245 248 251 257 261 265 270 269 267 268 270 275 277 280 283
215 213 209 205 196 203 238 247 252 257 261 305 307 8 356 313 30 50 69 94 98 66 63 102 115 90 105 123 121 89 351 311 154 147 127 139 160 92 110 87 82 85 59 71 81 61 59 82 116 148 154 160 180 189 197 207 214 230 233 230 236 234 230 233 239 243 244 245 249 249 248 251 256 260 262 264 268 269 269 270 273 277 280 283 286
215 215 211 208 203 202 224 244 257 260 273 295 261 185 324 314 16 46 70 103 119 138 155 140 124 109 109 125 148 96 40 359 121 115 101 107 144 139 96 94 87 88 80 71 79 68 56 62 82 122 142 153 184 193 190 188 192 212 228 231 237 241 240 241 245 250 252 251 252 255 254 256 263 266 267 269 273 277 277 278 280 282 285 287 288
215 216 214 212 211 209 216 239 260 268 277 271 216 165 185 289 343 45 57 106 126 140 154 139 122 132 146 119 153 139 78 55 93 89 98 105 124 138 90 90 89 93 92 77 78 61 52 63 62 79 109 164 169 189 196 188 190 205 220 230 227 231 240 244 247 250 253 254 253 257 262 265 272 275 275 278 280 282 282 283 285 287 290 291 290
216 217 216 214 216 219 222 237 255 264 269 256 238 223 212 269 289 54 44 85 109 113 106 146 163 194 195 168 173 166 93 84 115 81 101 119 87 80 84 85 77 81 89 88 115 123 50 77 83 75 67 148 192 208 218 215 229 238 233 226 212 218 236 244 246 251 252 254 255 257 263 268 272 275 277 280 282 283 284 285 287 290 292 293 292
218 219 217 215 216 223 228 235 244 252 258 245 236 245 257 266 167 71 67 79 93 125 93 121 158 144 124 143 157 162 122 75 119 120 108 121 100 79 88 94 67 45 54 64 111 146 40 74 94 81 84 109 168 216 252 258 246 266 262 241 226 229 242 256 257 259 259 256 257 257 262 268 272 277 279 282 284 285 287 289 293 296 298 300 299
219 220 218 216 217 222 228 235 239 242 249 242 233 236 254 250 179 93 92 84 87 182 174 96 104 108 120 138 144 152 179 140 125 133 123 123 122 96 95 105 73 30 24 37 77 98 24 61 111 88 83 105 114 131 210 188 148 55 355 72 78 244 244 274 275 267 270 266 260 259 264 272 277 282 284 285 287 288 294 300 307 310 309 313 315
222 221 219 219 219 221 227 234 236 236 238 237 235 231 233 238 214 138 92 106 160 201 210 132 103 161 154 154 164 157 170 173 152 142 136 132 139 129 118 133 132 81 26 55 89 88 335 25 104 92 77 102 118 123 130 125 110 89 75 74 77 81 89 72 50 60 21 268 241 249 255 267 275 281 289 293 299 306 314 322 324 323 325 327 328
224 224 222 223 222 223 228 233 234 236 236 231 232 233 228 226 218 163 89 112 205 239 203 165 149 155 159 163 178 170 163 162 153 150 154 140 144 145 141 157 145 137 137 131 159 288 350 48 84 108 128 98 128 130 104 114 108 98 89 75 83 82 75 73 65 82 96 120 154 187 223 280 315 318 327 325 328 329 328 330 330 331 335 336 338
226 226 225 225 225 225 229 234 235 235 235 232 228 233 231 218 215 156 105 116 219 272 223 178 173 172 173 156 144 161 153 148 148 146 154 153 150 144 146 180 153 150 165 169 199 273 35 65 72 78 135 146 156 140 103 124 128 113 117 108 108 102 83 63 47 92 114 117 119 55 4 358 351 341 341 341 338 335 330 331 331 332 335 337 338
228 228 227 225 226 226 227 232 237 232 228 232 228 232 233 217 221 159 139 155 184 224 263 199 188 190 181 140 83 84 130 151 155 140 135 153 167 168 174 202 157 150 164 147 143 172 36 50 52 30 39 142 166 169 154 158 148 122 128 126 128 134 149 190 255 280 18 38 34 26 15 5 357 351 349 346 342 341 339 337 336 335 335 336 336
228 231 230 227 226 226 226 230 234 229 225 226 221 222 219 214 223 192 176 183 180 191 228 250 198 187 176 152 111 199 152 146 158 146 136 146 176 222 234 211 130 117 146 161 168 182 59 25 25 11 18 98 126 145 136 148 132 118 127 118 117 127 140 162 172 143 67 54 48 38 28 14 4 356 352 350 349 348 346 345 343 341 339 338 336
227 232 233 230 226 225 225 228 230 227 229 227 220 215 209 211 216 211 210 202 196 203 210 234 219 184 181 169 170 219 183 148 166 165 160 164 179 212 244 215 153 113 117 159 178 186 177 13 359 340 17 70 77 50 69 99 115 106 114 104 103 109 110 120 123 111 100 81 64 46 31 18 8 2 356 355 353 351 351 350 348 346 342 339 337
227 229 233 232 228 227 226 225 228 227 227 225 219 214 208 213 223 224 233 231 228 223 211 216 201 187 203 183 169 218 189 165 190 176 172 190 194 203 212 216 204 178 170 176 186 208 236 99 248 301 346 56 159 268 329 113 127 109 119 107 100 99 92 96 95 90 82 62 49 32 23 13 4 359 353 350 348 346 346 344 343 342 341 339 337
230 226 230 233 229 227 226 225 226 227 227 222 214 211 207 214 229 233 240 247 253 245 219 213 175 178 238 209 179 191 175 178 205 176 172 197 200 202 201 203 202 192 204 215 190 222 242 213 234 271 310 348 270 256 295 83 128 137 142 47 83 90 78 68 48 38 23 13 10 3 0 357 352 349 346 343 340 338 336 335 335 334 334 334 334
236 227 224 230 231 227 227 226 227 227 227 223 216 213 212 215 227 234 239 249 256 255 229 213 180 179 228 229 199 187 180 191 200 186 193 199 196 200 195 190 188 187 199 194 168 186 233 211 185 216 254 309 310 269 290 303 314 297 291 318 324 349 11 8 359 356 354 353 351 349 345 343 341 340 339 337 334 333 330 329 328 326 326 325 324
232 230 220 225 231 229 226 226 228 228 225 222 218 214 214 217 225 232 237 245 252 254 234 213 199 195 208 226 212 192 191 200 189 194 214 201 202 219 200 193 192 187 192 196 180 178 219 210 156 204 250 280 281 272 279 285 302 308 295 302 306 306 307 310 324 327 332 336 336 336 334 333 333 333 332 332 329 328 325 322 320 317 316 314 314
224 230 225 224 228 229 226 224 226 229 225 220 218 213 210 218 226 229 231 240 248 252 244 218 210 209 200 207 215 198 202 212 190 198 226 223 214 210 194 180 183 190 199 215 215 207 234 238 210 238 257 237 242 259 266 275 292 299 294 305 306 302 296 296 302 305 311 316 318 321 322 323 326 327 328 327 326 324 321 318 315 312 310 309 309
224 229 230 228 229 231 230 226 226 230 227 220 218 213 210 216 226 229 228 237 245 246 246 231 215 211 200 198 206 200 209 220 205 202 224 245 224 203 201 177 173 203 218 225 234 224 238 243 217 234 246 234 245 258 262 272 282 285 291 295 295 293 288 286 289 293 298 301 304 308 311 314 318 321 323 323 321 319 316 312 309 307 306 306 306
229 229 230 230 232 235 235 229 226 229 231 226 220 218 215 217 223 228 229 235 242 243 245 240 227 220 212 204 199 196 210 228 224 208 203 235 254 226 217 201 179 195 213 217 241 235 224 234 234 230 235 245 257 265 270 271 264 260 270 277 280 284 283 283 283 285 288 290 293 296 298 303 308 313 316 316 317 316 315 313 310 309 309 309 310
233 232 230 230 232 236 237 234 227 225 230 230 226 223 222 222 224 228 232 236 240 242 244 244 238 229 223 217 203 194 199 214 229 224 198 204 253 249 227 214 200 199 208 216 243 253 217 218 232 232 238 254 261 265 276 277 263 251 252 261 271 277 279 279 277 278 279 279 282 286 290 295 300 305 308 311 315 317 317 316 314 314 313 313 315
231 233 232 229 228 231 236 239 233 227 228 229 228 227 227 227 227 230 236 240 241 242 243 245 245 238 227 223 215 200 196 201 213 224 215 205 218 229 226 225 215 208 213 221 228 243 231 218 231 237 240 251 258 260 268 275 272 260 252 255 261 266 270 270 269 271 272 272 274 279 283 288 292 297 302 306 312 315 316 316 316 315 314 315 318
227 228 232 231 228 227 231 237 239 235 231 230 230 229 229 230 231 234 237 240 242 242 243 244 247 247 237 227 222 211 203 205 206 208 218 222 219 219 223 227 221 208 208 223 227 231 233 226 233 241 239 243 252 260 264 267 268 263 258 257 258 261 263 264 267 268 266 266 269 273 276 280 285 288 294 301 307 311 313 313 314 316 318 322 323
229 227 229 232 232 228 227 230 235 237 236 235 234 231 230 230 232 235 235 235 239 240 241 242 244 248 247 236 228 219 211 214 214 208 212 226 229 227 228 231 230 216 205 214 225 224 221 216 224 243 245 244 253 264 267 265 264 260 255 254 256 259 259 262 267 266 262 262 265 270 273 275 280 283 289 296 302 306 309 310 312 316 322 325 323
232 230 228 229 231 231 228 227 228 233 236 236 236 233 231 232 232 235 235 232 235 238 239 241 242 245 248 245 236 228 218 217 221 218 215 225 233 235 235 235 237 230 216 216 221 219 216 213 217 238 247 248 255 265 267 265 264 262 253 249 252 257 259 263 266 265 264 265 266 267 269 273 278 280 285 291 296 298 302 304 303 306 315 319 318
232 232 232 230 229 230 230 229 227 230 235 236 237 235 234 235 235 236 237 235 235 237 238 240 243 244 246 247 243 237 229 223 224 225 221 224 233 237 237 237 239 238 230 227 227 224 223 221 218 225 243 254 257 259 259 257 260 264 260 253 253 257 262 267 270 269 267 268 269 269 269 274 279 282 285 289 291 294 299 299 292 296 310 316 316
231 232 235 234 231 228 229 231 230 231 234 235 236 236 236 236 237 237 238 238 237 236 236 238 242 246 247 248 246 242 237 232 229 230 227 225 230 237 239 237 238 240 238 236 236 234 232 229 223 219 226 242 253 255 252 251 257 263 264 261 258 259 264 267 269 271 270 269 269 270 271 275 280 285 287 288 291 294 297 296 292 298 309 314 314
230 231 234 235 234 231 229 230 231 231 232 233 235 237 238 238 238 239 239 239 240 238 237 238 241 245 247 248 249 246 242 239 236 235 234 230 230 236 241 240 238 239 240 240 240 240 238 236 232 228 226 226 235 244 248 251 255 258 259 262 262 261 261 262 265 267 267 269 271 273 275 277 281 284 286 289 293 295 295 294 294 301 308 311 310
229 231 233 233 235 236 233 230 230 230 230 232 233 235 238 241 241 241 241 242 243 243 242 242 242 243 246 248 250 249 244 242 241 240 239 236 232 233 239 242 241 240 240 241 242 243 242 240 237 236 235 234 236 240 245 249 254 255 255 256 261 264 261 259 261 261 259 261 265 269 273 277 280 283 285 288 291 292 292 291 294 299 305 308 307
230 231 233 233 233 236 236 233 230 231 231 231 232 233 236 240 242 242 242 242 244 245 246 246 244 244 245 247 250 251 247 244 244 244 243 242 238 235 237 241 242 240 239 240 243 244 243 243 242 238 236 237 240 244 245 245 249 254 254 250 253 259 261 257 256 256 257 257 259 265 271 275 279 283 286 287 288 288 288 288 291 297 303 307 307
231 230 232 234 234 235 237 237 233 232 232 232 233 234 234 236 238 241 242 243 244 245 245 246 246 245 246 247 249 250 249 247 247 247 247 245 243 239 238 240 242 241 238 238 240 242 243 244 244 241 237 235 237 243 246 245 245 248 252 251 249 252 255 255 253 251 251 255 260 265 269 273 278 282 284 285 285 286 285 285 290 297 304 310 312
235 232 232 234 237 236 237 238 237 234 234 235 235 236 236 234 234 237 240 242 244 244 243 244 245 246 247 247 247 249 250 250 250 250 250 248 246 244 242 241 241 241 240 238 236 238 241 243 242 241 240 237 237 240 244 246 246 245 246 248 249 250 251 253 253 249 246 251 259 264 267 273 277 281 283 285 288 290 288 289 294 297 304 310 314
235 233 230 232 236 237 236 238 239 236 236 238 238 237 237 235 233 234 238 240 241 242 243 243 243 246 248 247 247 249 250 251 252 252 252 251 248 246 244 242 240 241 241 239 236 236 237 240 242 243 243 240 239 239 240 241 242 244 242 240 244 251 254 255 255 249 245 250 258 263 267 271 274 277 283 287 291 292 292 296 299 295 292 302 309
232 232 230 229 232 234 235 236 237 238 239 241 240 239 238 237 235 234 236 239 240 241 242 242 242 245 247 246 247 250 252 252 253 254 254 253 252 250 247 244 241 241 241 240 238 237 235 236 238 240 241 241 239 238 238 239 242 247 247 240 239 244 250 256 259 253 247 249 255 260 264 269 272 276 283 287 289 290 292 299 303 295 289 296 304
229 230 229 227 227 231 234 234 235 237 241 243 243 243 242 241 240 237 236 238 239 240 241 241 241 243 244 244 245 249 252 254 254 254 253 254 254 254 252 249 246 244 242 240 239 238 237 236 236 236 237 240 240 238 239 242 245 248 248 243 240 241 243 247 253 256 253 250 252 257 262 268 271 273 279 283 285 288 292 299 306 303 297 297 301
226 229 230 228 226 227 231 235 236 238 241 245 246 246 246 245 244 242 239 239 240 240 241 241 241 242 243 243 244 245 248 251 253 253 252 253 254 255 252 251 251 249 246 244 242 240 238 237 237 236 235 238 241 241 240 241 243 245 247 245 243 242 241 240 244 250 254 253 254 256 260 265 268 270 274 277 283 292 300 306 307 301 293 294 299
225 226 229 230 228 226 228 233 237 239 242 246 248 248 248 247 247 245 243 241 241 241 242 242 243 243 243 243 243 242 243 247 250 251 252 252 253 254 253 251 251 251 250 249 248 245 242 240 239 238 238 239 241 241 238 237 239 242 244 245 244 241 241 242 243 246 251 253 253 255 261 266 267 268 269 273 285 298 295 293 292 285 283 290 296
226 226 228 230 231 229 227 229 235 239 242 245 248 250 251 249 248 247 245 243 243 244 244 244 244 244 245 244 242 241 242 244 246 248 250 251 251 252 253 251 250 250 250 249 250 249 248 246 244 243 242 241 241 242 240 236 234 236 239 242 244 242 240 242 245 247 250 251 252 257 263 266 265 266 267 272 283 284 276 276 279 278 281 287 290
226 227 227 229 231 232 230 229 232 236 240 243 246 249 251 250 249 247 246 245 245 246 247 247 246 246 247 246 244 243 242 241 244 246 247 248 248 249 249 249 249 250 248 247 247 246 246 245 245 246 245 243 243 244 243 236 230 231 236 240 241 244 245 244 244 245 247 249 252 255 260 264 265 262 262 268 272 271 271 273 277 278 280 283 286
226 227 228 229 230 232 233 231 231 234 238 241 245 247 250 251 250 248 247 245 244 245 246 248 248 248 249 248 247 246 243 241 243 246 246 246 246 246 246 247 249 250 249 249 248 246 245 246 246 246 245 243 244 244 240 235 230 230 236 240 243 246 248 245 241 240 243 248 249 251 258 267 265 253 248 251 251 251 255 260 266 272 276 281 286
227 228 229 230 230 231 233 234 234 236 237 238 242 246 248 250 249 249 249 246 243 243 243 245 246 248 249 248 247 247 246 244 244 246 247 246 245 245 245 247 249 249 249 251 251 248 248 250 249 245 243 242 243 242 238 235 232 230 233 238 239 239 239 238 236 236 241 246 248 251 260 264 251 232 230 234 233 234 243 258 269 275 279 283 286
228 230 231 232 232 233 235 236 237 239 239 238 240 243 246 248 248 248 248 248 246 244 243 242 244 246 248 248 247 247 246 246 245 245 246 245 245 245 245 246 248 249 250 252 250 247 249 251 250 247 243 241 241 240 237 234 232 230 230 231 232 233 233 232 233 235 240 245 249 256 260 252 236 228 228 231 235 241 254 271 282 285 283 281 283
230 231 232 233 234 235 236 237 239 242 242 242 241 242 243 245 247 248 249 248 248 248 246 244 243 244 246 248 248 247 246 246 246 246 246 244 244 245 245 244 245 247 250 251 248 246 247 248 247 246 243 241 239 239 238 235 232 233 233 231 231 232 233 234 235 238 244 247 247 249 250 246 242 237 228 229 240 254 267 280 286 282 276 276 283
232 232 231 233 235 236 237 238 240 242 244 245 245 245 245 245 245 248 249 248 249 250 249 247 246 245 246 247 248 248 248 247 246 248 248 245 243 244 244 243 242 245 249 251 249 248 247 246 245 243 242 241 239 238 239 237 234 234 235 235 233 231 231 234 236 238 244 248 244 236 239 246 245 234 227 231 243 257 269 274 273 272 275 280 287